{"data":{"norad_id":81317,"intl_designator":"","name":"UNKNOWN","alt_names":[],"object_type":"UNKNOWN","status":"UNKNOWN","operator":null,"country":null,"launch_date":null,"launch_site_code":null,"launch_vehicle":null,"mission":null,"orbit_class":"UNKNOWN","rcs_meters":null,"size_class":null,"mass_kg":null,"dimensions":null,"purposes":[],"wikipedia_slug":null,"has_3d_model":false,"image_url":null,"decayed_at":null,"tle_current":{"epoch":"2026-05-24T01:59:24.147168Z","epoch_age_seconds":144534,"freshness":"FRESH","line1":"1 81317U          26144.08291837  .00000114  00000+0  29441-3 0  9993","line2":"2 81317  67.1352 179.1303 0218964 281.8569 104.8288 13.38082248610354","mean_motion":13.38082248,"eccentricity":0.0218964,"inclination_deg":67.1352,"raan_deg":179.1303,"arg_perigee_deg":281.8569,"mean_anomaly_deg":104.8288,"bstar":0.00029441,"rev_number":61035,"period_min":107.61670309522,"perigee_km":952.327462269,"apogee_km":1280.5356031073,"semimajor_km":7494.5685326881,"source":"CELESTRAK","updated_at":"2026-05-25T13:38:09.448816Z"}}}